User: anonymous   Login
Location: Unspecified
(0.0000°N, 0.0000°E)
Time: 23:20:11
(UTC+00:00)
Language:

STARLINK-35064 - Orbit

View from above orbital plane
View from above orbital plane
View from above satellite
View from above satellite

Ground track
Ground track

The orbit is defined by the following mean orbital elements,

1 65531U          26145.14007472 +.00000000 +00000-0 -78390-3 0 00007
2 65531  97.4527 214.7752 0001892 186.9942 173.1259 15.05624239    08
Epoch (UTC): 25 May 2026 03:21:42
Eccentricity: 0.0001892
inclination: 97.4527°
perigee height: 548 km
apogee height: 551 km
right ascension of ascending node: 214.7752°
argument of perigee: 186.9942°
revolutions per day: 15.05624239
mean anomaly at epoch: 173.1259°

The dashed part of the orbit path shows where the satellite is in the earth's shadow,  

DLR